Theta_e
309 311 316 314 317 317 316 317 314 318 316 310 313 314 313 314 311 312 312 309 304 305 311 308 306 308 307 305 303 303 305 301 299 300 299 297 297 298 298 299 300 300 298 296 296 297 297 296 296 295 295 295 294 294 294 294 294 294 293 293 293 292 292 291 292 292 291 291 290 290 290 289 289 289 289 288 288 288 287 287 287 286 286 286 285 285
311 311 320 319 317 314 314 316 312 310 311 309 310 310 312 313 311 311 308 308 305 305 313 309 305 309 306 304 302 301 303 301 299 299 298 297 298 298 299 300 300 299 297 296 295 296 296 296 296 295 295 294 294 294 294 294 294 294 293 293 293 292 292 292 291 291 291 291 291 290 290 290 289 289 289 288 288 288 288 287 287 286 286 286 285 285
317 315 320 318 314 311 312 314 312 310 309 311 312 310 312 313 313 312 308 309 307 304 311 311 306 307 304 303 302 299 300 300 298 298 298 298 298 298 299 299 298 299 298 297 295 296 296 296 295 295 295 294 294 294 294 294 294 293 293 293 293 292 292 292 292 292 291 291 291 291 290 290 289 289 289 288 288 288 288 287 287 286 286 285 285 285
316 317 313 311 310 307 309 312 310 309 311 312 310 308 313 311 310 313 311 311 309 305 308 309 307 307 306 304 301 298 298 298 297 298 298 298 298 297 297 298 298 299 299 299 297 295 295 296 295 294 294 294 294 294 294 294 293 293 293 293 292 292 292 292 291 291 291 291 291 291 290 290 289 289 289 289 289 289 288 288 287 287 286 286 285 285
316 314 306 308 311 307 308 312 309 307 312 318 313 308 312 311 308 311 311 310 310 307 305 306 309 310 307 304 301 298 298 297 297 297 297 297 297 297 297 297 298 298 298 299 299 296 294 294 294 294 294 294 294 294 294 293 293 293 292 292 292 291 290 290 290 291 291 291 291 291 290 290 290 289 289 289 289 289 289 289 288 287 287 286 286 285
314 308 304 308 310 308 308 311 312 309 310 318 317 311 310 309 307 308 310 309 309 310 306 305 311 313 307 303 301 299 298 297 297 297 297 297 296 297 297 297 297 297 297 297 296 295 293 292 293 294 294 294 294 293 293 293 293 292 291 291 290 289 288 288 289 289 290 290 290 290 290 290 289 289 289 289 289 289 289 289 289 288 287 287 286 286
308 306 307 308 309 309 308 310 313 310 308 313 313 309 309 307 305 307 307 307 309 310 305 303 309 313 309 304 301 299 298 298 297 297 297 296 296 296 296 297 297 297 297 296 294 292 292 292 293 293 293 293 293 293 293 292 291 290 289 289 288 287 287 287 288 288 288 289 289 289 289 289 289 289 289 289 290 289 289 289 289 289 288 287 287 286
307 307 309 308 310 309 309 310 310 310 311 313 310 306 307 305 304 306 305 305 309 308 306 305 305 309 309 304 300 298 298 299 297 297 296 295 296 296 296 297 297 297 297 297 296 292 291 292 293 293 293 292 292 292 291 291 289 288 288 287 287 287 286 287 287 287 287 286 286 287 288 288 288 289 289 289 289 289 289 289 288 288 288 288 287 287
308 308 309 308 310 310 312 311 306 307 310 312 308 304 304 303 304 306 304 306 307 304 309 309 303 306 309 304 301 299 299 299 298 297 297 296 296 296 296 297 296 297 296 294 294 292 291 292 292 292 291 291 291 290 290 289 288 287 287 287 286 286 286 286 286 285 285 285 285 285 286 287 287 287 287 287 287 288 288 288 288 288 288 288 288 287
308 306 308 308 308 310 314 310 305 307 307 306 305 304 305 305 305 305 304 306 307 305 311 311 303 307 309 303 304 303 299 299 298 297 297 296 296 296 296 296 296 296 295 292 291 291 292 292 292 291 290 290 290 289 289 288 287 287 286 286 285 285 285 285 284 284 284 284 284 284 284 285 285 285 285 286 286 286 287 287 287 287 287 287 287 287
309 304 305 308 307 307 308 304 303 306 303 303 304 306 308 308 306 306 306 306 307 309 314 311 304 306 308 303 301 301 299 300 299 297 297 296 296 296 296 296 296 295 295 293 291 291 292 292 291 290 290 290 289 289 288 287 286 286 285 285 285 284 284 284 283 283 283 283 283 282 283 283 284 284 285 285 285 285 285 286 286 286 286 286 286 286
312 306 304 306 304 304 303 302 304 305 305 305 307 308 308 310 308 307 310 309 307 314 315 308 303 304 307 304 299 299 300 299 298 297 297 297 296 296 296 296 295 294 294 294 292 291 291 291 291 290 289 289 289 288 286 286 285 285 284 284 284 283 283 282 282 282 282 281 281 282 282 283 283 283 283 284 284 284 285 285 285 285 285 285 285 285
315 309 305 304 303 303 303 305 308 309 309 308 309 311 310 313 312 310 314 311 310 316 309 302 303 303 304 302 298 298 298 297 297 297 297 297 296 296 295 295 294 294 293 294 294 292 291 291 290 289 289 288 288 286 285 285 284 284 283 283 283 282 282 281 281 280 280 281 281 281 281 281 281 281 282 283 283 284 284 285 285 284 284 284 284 284
313 311 307 305 304 302 302 305 308 308 307 306 307 311 312 311 310 312 314 309 309 313 304 300 303 303 301 299 298 297 296 296 297 296 296 296 295 295 294 294 294 294 294 294 294 292 290 291 290 288 288 287 286 285 285 284 283 283 283 282 282 281 280 280 279 279 280 280 280 279 279 279 280 280 281 282 282 283 283 283 284 284 284 284 283 283
308 311 309 307 305 303 302 303 304 304 306 307 306 306 309 311 308 310 313 309 309 311 305 302 303 303 301 298 296 296 294 295 295 295 295 295 295 295 294 294 294 295 295 295 294 292 290 290 289 288 287 286 285 285 284 283 282 282 282 281 280 279 279 279 278 279 279 278 278 278 278 278 279 278 278 279 279 279 280 281 282 282 282 283 283 283
306 309 307 303 300 301 303 302 300 301 304 305 303 302 306 310 309 308 310 308 306 308 308 305 301 299 299 296 295 294 294 295 295 295 296 295 295 295 294 294 294 295 295 295 293 291 290 289 288 287 286 285 284 284 283 282 281 281 280 280 279 278 278 277 277 277 277 276 277 277 278 277 276 276 275 276 276 277 278 278 279 280 281 282 282 282
307 310 307 302 300 299 300 301 301 302 304 302 301 304 304 303 304 306 307 305 303 304 307 305 300 298 297 297 296 295 295 295 295 295 295 295 295 294 294 294 293 294 294 293 292 290 288 287 287 286 285 284 283 282 281 280 280 280 279 278 277 277 277 276 276 276 275 276 276 276 276 275 274 274 274 275 276 276 277 277 278 279 280 280 280 280
304 308 308 304 303 301 297 299 301 300 301 303 304 305 302 300 304 307 306 306 307 307 308 305 301 300 300 300 297 296 296 295 295 295 294 294 294 293 293 292 292 292 292 292 291 288 287 286 285 285 284 283 282 281 280 279 279 278 277 277 276 276 275 275 274 275 275 276 275 274 273 272 272 273 274 275 275 275 276 277 278 279 279 279 278 278
302 305 307 301 301 303 298 299 304 302 298 301 303 301 300 302 308 308 305 307 307 306 309 307 300 299 301 301 298 296 295 295 294 294 293 293 293 292 291 290 290 290 290 291 290 287 286 285 285 284 283 282 281 280 279 278 277 277 276 276 275 274 274 274 274 275 275 274 273 272 271 272 272 273 274 274 275 275 276 277 277 277 277 276 276 276
304 304 306 302 299 301 300 300 308 308 300 298 300 300 300 302 307 307 303 306 308 306 307 308 304 301 300 299 297 295 295 294 293 293 292 292 292 291 290 289 289 289 289 289 287 286 285 285 284 283 282 281 279 278 277 277 276 276 275 274 273 273 273 273 274 274 273 272 271 271 271 272 273 273 274 274 274 275 275 274 273 274 274 273 273 274
304 303 306 307 302 301 304 303 307 308 303 302 303 303 302 301 303 304 302 303 307 307 307 307 307 302 296 295 296 295 294 293 293 292 291 291 291 290 289 289 289 289 288 287 286 285 284 284 283 282 281 279 278 277 276 275 275 275 274 273 272 272 273 273 273 272 271 270 270 270 271 272 273 273 273 272 272 272 272 271 271 271 271 271 271 271
303 302 305 307 303 303 306 303 303 303 304 306 306 305 307 306 304 304 304 303 303 304 306 306 306 300 294 294 295 294 293 293 292 291 290 290 289 288 288 288 288 288 288 287 285 284 284 283 282 280 279 278 277 276 275 274 274 274 272 272 272 272 273 273 271 270 269 269 270 271 272 272 272 271 270 270 269 269 269 269 268 268 268 268 268 268
300 301 302 304 302 302 303 300 298 299 301 302 301 300 305 306 304 303 306 307 303 302 302 302 304 300 294 294 295 294 293 292 291 290 288 288 288 288 288 287 288 288 288 286 285 284 283 282 280 279 278 276 276 275 273 273 273 272 271 271 271 272 272 271 269 268 268 269 270 271 271 270 269 268 268 267 267 267 267 266 265 266 266 266 266 266
299 300 301 304 304 302 302 300 297 297 299 300 300 300 301 301 303 305 305 305 304 303 302 301 303 299 295 294 294 294 293 291 289 288 288 287 287 287 287 287 288 288 287 286 284 283 282 280 279 277 276 275 274 273 272 273 273 271 271 271 271 271 271 269 268 268 268 269 270 270 269 267 267 267 267 266 266 266 265 264 264 264 265 265 265 265
300 303 303 303 304 304 307 307 304 302 303 302 301 301 300 299 301 302 300 300 302 302 301 302 303 299 295 294 293 292 291 289 287 287 287 286 286 287 287 286 287 286 286 285 283 281 280 278 277 276 275 274 273 272 272 272 272 270 270 270 270 270 269 268 267 267 268 269 269 268 266 265 265 266 265 265 265 264 263 263 263 263 263 264 264 264
299 302 301 302 304 304 306 308 306 304 304 302 300 299 300 299 299 300 300 303 303 300 300 303 303 299 295 292 290 289 288 288 287 287 287 286 286 287 286 285 285 285 284 284 281 279 278 277 276 275 274 273 272 271 272 271 270 270 270 269 269 268 267 267 267 267 268 268 267 266 265 264 264 264 264 264 263 263 262 262 262 262 263 263 263 263
300 302 301 302 303 302 302 302 301 301 301 301 300 300 301 299 298 300 302 303 302 300 301 301 300 298 294 290 288 287 287 287 287 286 286 285 286 286 285 284 284 284 283 282 279 278 277 276 275 274 273 272 271 271 271 270 270 269 269 268 267 267 266 266 266 267 268 267 265 264 264 263 264 263 263 263 262 262 261 261 261 262 262 262 262 262
301 302 301 302 302 301 301 300 299 299 298 298 299 300 301 300 298 300 302 301 300 301 302 299 296 297 294 288 287 287 287 287 286 286 286 285 285 286 284 283 283 282 281 279 277 276 276 275 274 273 272 271 271 270 270 269 269 268 267 267 266 266 266 265 266 267 267 265 264 263 263 262 263 262 262 262 261 261 261 261 261 261 261 261 261 261
300 302 300 300 302 301 299 299 298 298 297 298 298 298 299 299 299 299 299 298 298 300 301 297 296 296 291 287 287 287 286 287 286 285 285 284 285 285 283 282 282 281 279 277 276 276 275 274 273 272 271 270 270 270 269 269 268 267 267 266 265 265 265 265 265 266 265 264 263 262 262 262 261 261 261 261 260 260 260 260 260 260 260 260 260 261
298 302 302 300 301 301 299 298 298 299 299 298 296 296 297 297 297 297 298 297 296 297 297 294 294 294 289 287 287 286 286 286 285 285 284 284 284 283 282 282 281 279 277 276 276 275 273 272 272 271 270 270 269 269 268 268 267 266 266 265 264 264 264 264 265 265 264 263 262 261 261 261 260 260 260 260 259 259 259 259 259 259 259 260 260 260
297 301 301 300 300 302 301 301 299 299 301 299 296 295 296 297 297 297 297 296 296 298 296 293 293 294 289 287 287 286 286 285 285 284 284 283 283 282 281 281 279 277 276 275 274 273 272 271 270 270 269 269 268 268 267 267 267 266 265 264 264 263 263 264 264 264 263 262 261 261 260 260 260 259 259 259 259 259 259 259 259 259 259 259 260 260
297 299 301 301 300 302 302 301 299 298 300 300 298 295 295 296 296 295 295 294 294 296 295 293 293 292 289 287 287 286 286 285 284 284 283 283 282 281 280 279 277 275 274 274 273 271 271 270 269 269 268 268 268 267 267 266 266 265 264 263 263 262 262 263 263 263 262 261 260 260 259 259 259 259 258 258 258 258 258 258 258 259 259 259 259 260
297 298 300 300 300 302 302 299 298 298 300 301 297 294 294 294 293 293 294 293 292 292 293 293 292 290 288 287 286 286 285 284 283 283 283 282 280 280 279 277 275 274 273 273 272 270 270 269 268 268 267 267 267 266 266 265 265 264 263 262 262 262 262 262 262 261 261 260 260 259 259 259 258 258 258 258 258 258 258 258 258 258 259 259 259 260
297 297 298 298 299 303 303 299 298 300 302 299 294 292 294 294 292 293 294 291 290 290 290 290 289 288 287 286 285 285 284 283 283 283 282 280 279 279 278 275 273 273 272 272 271 269 269 268 267 267 267 267 266 265 265 265 264 263 262 262 261 261 261 261 261 261 260 259 259 259 258 258 258 258 258 257 257 257 258 258 258 258 259 259 259 260
298 298 298 297 298 301 302 301 303 304 300 295 291 291 292 293 291 292 292 290 288 289 289 288 287 287 286 285 284 283 282 282 282 282 280 279 277 277 275 274 272 271 271 271 270 269 268 267 267 267 266 266 266 264 264 264 263 262 262 261 261 261 261 261 260 260 259 259 258 258 258 258 257 257 257 257 257 257 257 258 258 258 259 259 260 260
297 297 297 297 298 300 300 301 302 300 295 293 293 292 291 292 292 291 291 290 288 288 288 287 286 286 284 284 283 282 281 281 282 281 279 277 276 275 274 273 271 270 271 270 269 268 268 267 266 266 265 265 265 264 263 263 262 261 261 260 260 260 260 260 260 259 259 258 258 258 257 257 257 257 257 257 257 257 257 258 258 258 259 259 260 260
296 297 297 298 299 299 299 301 300 297 295 295 294 292 290 290 291 290 291 290 287 286 286 285 285 285 283 283 282 281 281 281 281 281 278 276 275 274 273 272 270 270 270 269 268 268 267 266 266 265 265 265 264 263 263 262 261 261 260 260 260 260 260 259 259 258 258 258 258 257 257 257 257 256 256 256 257 257 257 258 258 258 259 259 260 260
295 295 295 297 299 298 298 298 299 300 300 295 291 290 289 289 289 288 290 289 286 284 284 284 284 283 282 282 281 280 280 280 279 280 278 275 274 273 272 271 270 269 269 269 268 267 266 266 265 264 264 264 263 263 262 261 260 260 259 259 259 259 259 259 258 258 257 257 257 257 257 256 256 256 256 256 256 257 257 258 258 259 259 260 260 261
296 295 296 299 300 298 296 296 298 301 299 292 289 289 288 289 288 287 289 289 286 284 283 283 283 283 282 281 280 279 280 279 279 279 276 275 274 272 271 270 269 268 268 268 267 267 266 265 264 264 264 263 263 262 261 260 260 259 259 259 259 259 259 258 258 257 257 257 257 256 256 256 256 256 256 256 256 257 257 258 258 259 259 260 260 261
300 298 299 299 299 296 295 296 297 298 294 289 288 288 288 288 287 287 289 289 286 283 283 282 283 282 281 280 279 279 279 278 278 278 275 274 273 272 270 269 268 267 267 267 267 266 265 264 263 263 263 262 262 261 260 260 259 259 259 259 258 258 258 258 257 257 257 256 256 256 256 256 256 256 256 256 256 257 258 258 259 259 260 260 261 261
300 298 296 296 297 296 296 296 295 293 291 288 288 288 288 288 288 289 290 288 284 283 283 281 282 281 280 279 279 278 278 278 277 276 275 273 272 271 269 268 267 267 266 266 266 265 264 263 263 263 262 262 261 261 260 259 259 258 258 258 258 258 258 257 257 256 256 256 256 256 256 255 255 255 256 256 257 257 258 258 259 259 260 260 261 261
298 298 297 295 295 294 294 295 294 292 289 287 287 288 288 288 289 289 288 285 284 283 282 280 281 280 279 279 278 277 277 276 276 275 273 272 271 270 268 268 267 266 266 265 265 265 263 263 262 262 262 261 261 260 259 259 258 258 258 258 258 258 257 257 256 256 256 256 255 255 255 255 255 255 256 256 257 257 258 259 259 259 260 260 261 261
295 296 298 295 292 292 294 295 294 292 289 287 288 288 288 287 287 286 284 284 283 282 280 280 280 280 279 278 277 276 276 275 274 273 271 271 270 269 268 267 266 265 265 265 265 264 263 262 262 262 261 261 260 260 259 258 258 258 258 258 257 257 257 256 256 256 255 255 255 255 255 255 255 255 256 256 257 258 258 259 259 259 260 260 260 261
292 293 296 294 292 293 295 294 292 290 288 287 287 287 286 286 285 284 283 283 282 281 280 280 279 279 278 276 275 275 275 274 272 271 270 269 269 268 267 267 266 265 265 264 264 263 262 262 261 261 261 260 260 259 259 258 258 257 257 257 257 257 256 256 256 255 255 255 255 255 255 255 255 255 256 257 257 258 258 258 259 259 260 260 260 261
291 290 293 292 291 292 292 291 290 289 287 287 286 285 285 285 284 283 282 281 280 280 280 279 278 277 276 275 274 274 273 272 270 269 269 269 268 267 267 266 265 265 264 264 264 263 262 261 261 261 260 260 259 259 258 258 258 257 257 257 257 256 256 256 255 255 255 255 254 254 255 255 255 255 256 257 257 258 258 258 259 259 260 260 261 261
289 289 291 291 291 289 288 289 289 287 287 286 285 284 284 284 283 282 281 280 279 279 279 278 277 276 275 274 273 273 272 270 269 268 268 268 267 267 266 265 265 264 264 263 263 262 262 261 261 260 260 259 259 258 258 258 257 257 257 257 256 256 256 255 255 255 254 254 254 254 254 255 255 256 256 257 257 257 258 258 259 259 260 260 261 262
289 289 290 290 289 287 287 288 287 286 286 285 284 283 283 282 282 281 280 279 278 278 278 277 276 274 273 273 272 271 271 269 268 268 268 267 267 266 265 265 264 264 263 263 262 262 261 261 260 260 259 259 258 258 258 257 257 257 257 257 256 256 255 255 255 254 254 254 254 254 254 254 255 256 256 256 257 257 258 258 259 259 260 261 262 263
290 289 289 289 288 288 288 288 286 286 286 285 283 282 282 281 280 280 279 278 278 277 277 276 275 273 272 272 271 270 269 268 268 267 267 266 266 265 265 264 264 263 263 262 262 261 261 260 260 259 259 258 258 258 257 257 257 257 257 256 256 255 255 255 254 254 254 254 254 254 254 254 255 255 256 256 257 257 258 258 259 259 260 261 263 263
289 289 288 287 287 288 287 287 285 285 286 285 283 282 281 280 279 278 278 278 277 276 275 274 274 273 271 271 270 269 268 268 267 267 266 265 265 265 264 264 263 263 263 262 261 261 260 260 259 259 258 258 258 257 257 257 257 257 256 256 256 255 254 254 254 254 254 254 254 254 254 254 255 255 256 256 257 257 257 258 259 260 261 262 262 263
288 288 287 287 287 287 287 286 285 284 285 284 283 281 280 279 278 277 277 277 276 275 274 273 272 272 271 270 269 268 267 267 266 266 265 265 264 264 263 263 263 262 262 262 261 261 260 259 259 258 258 258 257 257 257 257 257 257 256 256 255 255 254 254 254 253 254 253 253 254 254 254 255 255 256 256 256 257 257 258 258 259 261 262 262 263
287 287 287 287 287 287 287 285 283 283 283 283 282 281 279 278 277 277 276 276 275 274 273 272 271 271 270 270 269 267 266 266 266 265 265 264 264 264 263 263 263 262 262 261 261 260 260 259 258 258 257 257 257 257 257 256 256 256 256 255 255 254 254 254 253 253 253 253 253 254 254 254 255 255 255 256 256 257 257 257 258 258 260 261 262 263
Wind_Speed
2 1 3 5 7 8 7 7 7 6 4 2 1 2 4 5 6 6 4 5 2 2 6 6 5 8 12 14 10 7 4 6 6 7 7 7 9 7 8 8 8 7 4 7 14 15 14 15 15 15 15 16 16 16 17 18 19 18 20 21 21 22 24 24 22 21 21 22 22 21 20 20 20 21 21 20 21 21 22 23 23 24 25 26 27 27
3 1 6 8 9 8 5 5 4 3 2 3 1 3 4 4 6 6 2 5 2 1 5 1 2 9 12 11 9 8 4 4 7 9 9 10 10 8 9 8 7 5 4 8 11 11 12 12 12 13 15 17 17 18 18 19 18 19 22 22 20 22 25 25 24 23 22 23 23 22 21 21 21 21 21 21 21 21 21 21 21 22 22 23 23 24
3 4 9 7 6 2 2 3 4 2 2 2 1 1 3 4 4 5 3 5 2 1 4 4 4 9 11 8 8 8 4 2 6 9 10 12 12 9 8 7 7 7 6 7 9 10 11 10 11 15 18 20 20 20 19 19 20 22 23 22 22 25 27 26 26 25 24 24 23 23 22 21 21 21 21 22 22 22 22 22 21 22 22 21 21 21
2 5 6 3 3 3 2 4 5 4 2 0 1 1 4 4 2 3 4 5 3 2 4 4 4 6 7 6 7 9 6 7 10 12 11 10 12 9 8 7 7 8 7 7 7 10 14 14 16 20 21 21 21 20 19 20 22 22 23 23 25 27 28 28 28 27 26 25 24 24 23 22 21 22 22 23 24 24 24 24 23 23 23 22 22 21
5 5 1 3 4 3 1 3 3 1 3 3 4 5 5 4 3 5 4 5 4 3 1 3 4 3 5 6 6 8 9 11 12 14 13 10 9 9 8 8 7 7 7 7 7 8 14 18 19 21 21 20 20 20 19 20 21 21 23 24 25 27 29 29 30 30 29 28 27 26 25 24 24 24 24 25 26 27 27 27 26 24 24 24 25 24
6 5 2 2 3 4 1 4 1 4 2 5 4 7 6 4 4 3 4 5 5 4 2 4 4 3 4 6 6 6 9 10 9 13 12 9 8 8 8 8 7 7 6 7 7 9 14 19 20 21 20 19 18 19 18 19 22 22 23 25 25 28 30 30 31 31 32 32 31 30 28 26 26 25 26 27 29 29 29 29 28 27 26 26 26 27
3 3 3 2 2 4 3 2 4 5 2 3 4 4 5 4 1 3 4 3 1 3 3 3 3 4 4 6 6 4 10 10 8 11 10 8 8 8 7 7 7 7 7 7 8 12 15 18 20 19 17 17 17 18 18 19 23 23 24 26 27 31 32 31 31 31 32 33 34 33 32 31 30 29 30 32 33 33 32 31 30 30 29 28 28 28
2 2 4 4 4 3 2 2 4 6 5 3 4 4 4 1 3 1 2 1 2 3 4 2 4 2 3 3 5 3 10 9 8 9 8 8 8 7 7 6 7 6 6 7 7 10 14 16 17 16 16 18 18 19 20 21 24 25 27 28 30 33 33 31 31 31 33 34 35 35 34 34 33 32 34 37 38 38 37 35 33 32 32 31 30 30
2 1 1 2 4 2 2 4 3 6 3 5 5 4 2 2 2 3 4 2 1 2 4 4 3 2 3 3 4 3 8 8 6 7 7 7 7 7 7 7 7 6 6 7 7 9 13 15 15 16 17 19 19 21 21 22 25 27 29 30 31 33 32 31 32 34 35 35 34 34 34 33 33 33 35 37 38 39 39 39 38 36 34 34 34 33
2 2 3 3 2 2 5 5 4 6 3 3 4 3 1 3 2 3 4 2 2 2 3 5 2 3 2 3 4 3 5 6 4 5 5 5 5 6 7 7 7 7 6 8 10 11 12 13 14 17 19 20 20 20 22 24 27 29 30 30 32 33 31 31 34 34 34 34 33 33 32 32 32 33 34 35 35 36 37 38 39 37 36 36 37 36
3 2 1 3 1 4 4 3 3 4 3 0 3 1 4 4 3 3 2 3 4 2 5 6 3 3 0 2 2 2 2 5 5 5 4 4 6 6 6 6 6 7 6 6 9 11 12 14 16 18 20 20 20 20 23 27 28 29 31 32 32 32 31 33 35 34 34 34 33 33 33 32 33 33 33 33 33 34 34 34 35 34 34 36 38 39
5 3 0 1 1 2 2 1 2 1 2 2 3 3 3 4 3 3 4 3 3 4 6 4 3 3 1 2 2 2 1 3 5 6 6 5 7 6 6 6 6 6 6 5 6 8 11 13 15 18 19 18 20 22 25 27 29 30 32 33 32 32 33 35 35 35 35 35 35 34 33 32 33 33 33 33 33 34 33 32 32 32 33 35 37 38
4 1 2 3 2 2 2 2 3 5 5 3 2 3 3 4 3 2 3 1 2 5 3 1 1 2 1 2 1 4 4 4 5 6 7 7 7 6 6 6 5 5 5 5 4 5 8 10 13 17 18 18 21 23 26 28 30 32 32 32 32 32 34 34 34 35 35 34 32 31 32 33 34 34 34 33 33 33 32 31 31 32 33 34 35 35
4 4 3 2 2 1 3 0 2 2 2 1 0 2 2 1 2 3 4 2 3 4 3 1 1 1 1 1 2 4 4 4 6 6 6 7 7 6 6 6 5 5 5 4 4 5 8 10 13 16 18 19 21 23 26 29 31 31 31 31 30 31 32 33 33 33 32 30 30 32 34 34 33 32 32 32 32 32 32 31 31 32 33 33 33 33
1 4 3 1 1 1 1 3 3 2 1 2 2 4 3 3 2 3 3 2 4 4 3 3 1 2 3 2 3 4 3 4 5 5 5 6 5 5 6 6 6 5 4 4 4 5 9 12 14 16 18 19 20 22 24 28 30 30 30 29 30 32 34 34 34 33 31 32 34 34 33 31 31 33 34 34 33 33 33 33 33 32 32 32 32 32
1 4 5 2 0 2 1 2 2 2 1 2 2 3 1 3 3 2 3 4 2 2 3 1 1 1 3 3 2 2 4 6 6 5 6 6 5 6 6 6 5 4 4 3 3 6 10 13 14 14 16 17 20 22 25 29 31 31 31 31 33 34 33 33 34 33 32 34 34 31 29 31 36 39 38 37 37 36 34 33 32 32 32 31 30 29
1 5 5 2 1 1 2 1 1 1 1 0 1 1 4 4 5 1 2 1 2 1 3 1 4 2 3 3 1 4 6 6 6 6 7 6 6 7 5 4 4 4 4 2 4 6 9 12 12 12 15 18 22 24 27 31 32 31 31 32 33 32 32 34 34 33 33 33 31 29 32 38 41 39 36 36 36 36 34 32 31 31 30 29 28 29
0 5 5 2 2 2 2 1 2 1 2 2 2 4 2 1 4 3 0 3 3 1 4 1 5 5 4 4 0 5 6 5 5 5 6 6 5 5 4 4 5 5 3 4 4 5 8 10 10 12 17 21 24 25 29 31 30 29 30 30 31 33 35 35 34 33 32 30 30 35 40 42 39 35 34 34 34 35 34 32 29 28 28 28 30 32
0 4 6 2 1 4 2 1 3 4 1 2 3 3 1 1 1 1 1 1 1 1 3 3 2 4 3 3 2 3 4 4 4 4 5 4 3 4 4 5 5 4 4 3 3 4 7 10 11 15 20 23 25 28 30 30 30 30 30 29 31 33 33 32 32 31 29 30 36 40 40 37 35 34 33 33 34 34 30 29 29 28 29 30 32 32
1 1 5 3 2 3 3 1 1 3 2 1 2 2 0 3 3 1 1 2 1 2 2 3 2 1 3 3 5 4 3 5 5 4 4 4 4 4 5 5 4 4 3 2 2 4 7 11 14 18 22 25 28 30 31 31 32 31 29 30 33 33 31 31 30 29 31 37 40 38 35 34 34 32 31 32 34 33 31 33 35 31 31 34 34 34
1 1 4 5 3 3 2 2 4 3 2 0 1 2 2 1 1 0 1 2 2 2 3 1 3 3 1 2 6 6 4 5 5 4 4 4 4 5 6 5 4 3 2 2 3 6 10 14 17 21 24 27 30 30 30 32 31 29 30 33 35 34 32 31 29 32 39 40 37 35 35 33 31 30 33 36 37 35 34 35 35 33 35 38 37 37
1 1 3 4 4 3 5 5 5 5 4 3 2 2 2 1 0 2 3 2 1 2 4 3 3 4 1 3 5 5 5 4 4 4 5 5 6 6 6 4 4 4 2 3 5 8 12 16 20 23 25 28 29 27 29 30 28 28 32 34 34 32 30 28 33 39 39 35 34 34 31 30 33 35 38 40 39 36 33 34 37 38 39 40 39 39
1 1 1 5 5 6 9 5 2 3 4 4 1 1 2 2 2 3 4 4 2 1 2 3 1 3 1 3 4 5 5 4 3 4 4 5 6 5 4 4 4 4 3 4 7 11 14 17 20 22 23 25 24 25 29 29 27 30 33 33 32 30 27 31 38 38 34 34 32 29 29 35 41 38 35 35 35 33 33 36 39 37 35 37 38 38
0 1 1 5 5 5 7 4 3 1 2 2 1 1 1 0 2 5 5 2 1 3 1 1 2 2 2 3 5 3 2 3 4 5 4 5 5 3 3 4 5 5 5 5 8 12 15 17 19 19 21 22 23 27 31 29 27 31 32 31 31 28 29 36 39 34 33 33 27 27 36 42 40 33 31 31 30 30 33 36 36 34 33 34 35 36
2 1 1 4 6 6 6 5 5 4 2 0 2 1 1 1 4 3 1 3 0 3 2 2 3 2 4 4 4 2 1 2 2 3 3 5 6 3 4 6 6 6 7 6 7 11 13 15 16 18 20 22 25 30 30 27 28 31 30 30 30 29 32 35 33 32 32 27 26 36 43 40 33 30 30 30 29 31 35 35 33 33 32 32 34 34
1 1 1 1 3 4 4 4 4 3 3 2 2 2 2 1 2 2 0 2 1 2 2 2 2 2 6 3 2 0 1 1 0 4 5 7 7 4 4 6 5 6 7 7 8 9 11 14 16 19 22 24 27 29 27 26 28 29 28 28 29 30 31 31 31 31 27 25 35 44 41 34 30 30 30 30 31 33 34 33 33 32 31 31 33 34
1 1 2 4 6 6 6 7 4 2 3 6 6 6 5 2 1 3 2 1 2 1 1 1 2 3 3 1 4 3 3 4 6 8 9 9 6 3 4 5 6 7 7 7 8 9 11 14 18 22 23 24 26 27 27 27 28 27 27 28 28 28 29 30 31 28 24 31 41 40 33 31 30 30 31 32 33 33 33 33 32 31 31 32 33 35
3 3 3 4 7 8 7 9 8 4 4 7 7 7 5 2 2 4 2 2 2 2 2 1 3 2 1 2 5 5 6 6 7 8 9 9 6 3 4 6 8 9 8 8 9 10 11 13 17 21 23 25 27 27 27 27 26 26 26 27 28 28 29 31 30 25 27 36 38 33 30 31 30 31 32 32 33 33 33 33 32 32 33 34 34 35
3 3 4 2 6 10 8 7 7 4 3 2 4 4 2 3 4 3 1 0 3 2 4 2 4 3 1 3 5 3 4 6 7 7 8 9 6 4 5 9 10 10 9 9 10 10 11 14 17 21 24 26 26 27 28 27 26 27 27 26 28 29 29 31 28 25 31 36 33 30 32 31 31 32 33 33 35 34 34 34 34 35 36 36 35 35
3 3 3 1 5 11 9 5 4 2 1 4 6 5 4 4 4 3 2 2 2 2 3 2 4 2 2 1 3 2 4 6 6 7 9 9 6 5 9 11 10 9 9 10 11 10 12 15 19 21 23 24 25 27 28 27 27 28 27 27 29 29 29 29 26 25 31 34 32 32 33 32 33 34 34 36 36 35 36 36 37 39 39 38 38 38
1 2 2 3 3 9 8 5 4 2 3 5 6 7 7 6 6 5 3 4 4 3 3 5 5 3 2 2 2 3 5 7 7 9 11 8 6 8 11 11 10 10 10 11 11 10 13 16 18 20 22 23 25 27 28 28 29 28 27 28 30 29 29 28 25 27 32 35 35 35 35 36 36 37 37 37 36 36 38 40 41 42 42 41 41 41
1 2 2 5 3 6 5 6 6 4 6 5 6 8 7 6 4 3 3 3 1 3 5 7 4 4 1 2 3 4 6 8 10 12 11 7 7 10 11 9 9 9 11 11 9 9 12 15 18 20 22 24 25 27 29 30 29 27 27 29 30 28 28 27 27 30 34 36 37 37 38 39 39 40 41 40 39 39 41 42 42 42 42 43 43 42
1 1 2 3 2 5 5 7 6 3 4 3 4 5 3 3 4 4 3 2 1 0 2 3 3 3 3 4 5 7 9 10 11 11 9 7 7 8 9 9 8 10 11 11 9 10 13 16 19 22 24 25 25 27 29 29 27 27 29 31 30 29 29 29 30 34 37 38 39 39 40 41 41 43 44 42 42 42 42 42 42 42 43 43 43 41
2 2 1 1 1 5 7 8 5 3 1 4 2 3 2 2 5 7 4 1 1 1 1 2 4 4 5 6 7 9 9 10 11 10 6 5 6 8 9 9 9 11 12 10 10 12 15 18 20 23 24 24 25 27 29 27 26 28 31 32 31 30 30 31 34 37 38 40 41 41 41 42 42 43 44 44 43 43 42 42 42 42 43 43 42 41
2 1 2 1 1 3 5 6 5 1 3 4 2 4 2 2 3 7 3 2 2 2 1 2 5 6 7 7 7 7 9 10 11 7 5 8 8 9 9 9 10 12 12 9 9 14 17 19 21 24 24 24 25 28 28 27 28 31 32 32 31 30 30 32 34 36 38 40 41 41 42 43 43 43 44 44 43 42 42 42 42 43 44 42 41 41
1 1 1 1 1 1 3 4 2 3 2 1 1 4 4 2 5 8 3 1 2 4 4 5 7 6 6 6 5 6 8 10 8 3 7 10 9 8 8 8 10 12 12 10 11 15 18 20 22 25 25 24 26 27 27 28 31 32 32 31 30 30 30 32 33 35 37 38 39 40 41 42 43 43 43 43 43 42 42 42 43 43 43 42 41 41
4 2 1 1 0 1 1 3 3 2 3 3 3 5 4 2 4 6 4 1 2 5 5 6 7 7 6 6 6 6 8 8 5 2 7 9 9 8 8 7 9 13 15 13 14 17 19 22 24 26 25 26 27 26 27 30 32 32 32 31 30 31 32 32 33 35 37 38 38 40 41 41 42 43 43 42 41 42 42 42 42 43 42 42 42 41
3 1 1 1 1 2 2 3 3 3 3 1 2 6 5 4 4 4 3 2 3 6 5 5 7 7 6 7 7 9 9 6 6 5 6 8 7 7 7 8 10 16 17 15 17 19 20 23 25 25 25 25 26 26 27 30 31 31 30 30 30 32 32 32 35 37 38 39 39 40 41 41 41 42 43 42 41 42 42 42 42 42 41 41 42 42
4 2 3 3 2 2 3 1 1 2 3 2 3 7 7 6 5 3 2 2 2 4 4 6 7 6 6 8 9 9 9 7 6 5 5 7 6 6 7 9 12 16 17 17 18 19 21 24 25 23 23 23 24 26 28 29 29 29 28 28 30 32 32 34 37 39 40 41 41 41 41 41 41 41 41 41 41 42 42 42 41 41 41 41 41 40
5 4 3 3 2 1 1 1 2 3 2 1 5 8 8 6 2 4 4 4 1 2 3 5 8 6 6 7 7 6 5 5 7 5 5 7 7 7 8 11 14 17 18 18 18 18 21 24 24 24 24 24 24 27 28 28 28 27 27 28 29 30 31 35 39 40 41 42 42 42 41 41 40 40 40 41 41 41 40 40 40 41 41 40 38 35
3 3 2 2 2 2 1 1 3 2 1 3 7 9 8 5 2 2 5 4 3 4 4 6 7 5 4 5 5 4 4 6 8 7 6 7 7 7 10 13 15 17 18 18 18 18 21 23 22 23 25 25 27 29 28 28 28 27 28 29 28 29 33 37 40 41 42 42 43 42 42 40 39 39 39 39 39 39 39 39 40 40 40 38 36 35
2 3 2 2 2 3 1 0 4 3 1 3 8 7 4 3 2 3 4 4 6 6 5 6 7 4 4 6 6 5 6 8 8 5 6 8 9 9 11 14 15 17 18 18 17 19 21 22 21 23 24 25 27 29 28 28 28 28 28 29 28 32 36 39 40 41 42 43 43 43 42 41 40 39 38 38 37 37 39 40 39 39 38 36 36 37
1 1 3 2 1 2 2 2 3 3 2 5 7 5 3 3 2 4 5 6 6 4 4 5 5 4 5 7 6 7 9 8 5 5 7 9 9 10 11 14 15 17 18 18 18 20 22 22 22 22 24 25 27 28 28 28 27 27 28 28 30 35 38 38 39 41 42 42 43 43 42 41 40 40 38 37 36 36 38 40 39 39 37 36 36 36
1 1 1 2 0 2 2 3 1 2 4 5 4 3 1 1 2 4 5 6 4 3 4 5 5 5 6 6 7 8 8 5 5 6 7 8 9 10 12 14 16 18 19 19 20 22 22 23 23 24 25 26 27 28 28 27 27 28 29 30 34 37 38 39 40 41 41 42 43 43 43 41 40 40 38 36 36 37 38 39 39 38 37 37 35 32
1 1 2 2 1 1 3 3 2 1 4 4 3 2 1 3 3 3 4 4 3 3 5 5 5 6 6 6 8 8 5 4 5 6 7 7 9 11 12 15 17 19 19 20 21 22 23 23 24 25 26 28 28 29 29 28 28 29 30 33 36 37 38 40 41 41 41 41 42 42 41 40 39 39 37 37 37 37 38 38 36 35 36 37 34 30
2 2 2 1 3 3 2 1 1 2 5 4 2 1 2 3 3 3 2 3 3 4 5 5 5 6 7 7 7 6 5 5 5 6 7 8 10 12 14 16 18 19 20 21 22 23 23 23 23 24 26 28 29 28 29 29 28 28 31 35 37 37 37 39 41 41 40 40 40 39 38 38 38 38 38 38 38 37 37 37 35 34 35 34 32 30
2 3 3 2 3 4 2 1 3 6 7 3 1 2 3 1 1 2 2 2 4 5 5 5 5 6 7 7 5 5 5 5 6 7 8 8 10 12 15 17 18 19 20 21 22 23 23 23 24 25 26 28 29 29 29 29 29 29 31 34 35 36 37 38 39 40 40 39 38 37 36 36 37 37 38 40 39 37 38 38 36 33 32 32 30 29
3 3 3 3 2 3 4 3 5 8 7 1 2 4 6 4 3 4 3 4 5 6 5 6 6 6 6 6 4 4 5 6 7 7 7 7 10 13 15 17 18 19 21 21 22 23 23 23 24 25 26 28 30 30 30 30 30 31 32 34 35 36 37 38 38 38 38 37 35 34 34 34 35 36 38 40 39 38 37 37 36 34 31 29 28 29
2 3 3 3 4 4 4 4 8 9 6 1 3 7 5 3 3 4 4 5 7 5 5 6 6 6 7 6 4 4 4 6 8 9 8 8 11 13 15 17 18 19 21 21 21 23 23 24 25 26 27 29 30 31 31 32 32 33 33 33 35 35 36 37 38 38 36 35 33 33 33 34 34 36 38 39 39 38 36 33 31 31 32 31 29 30
3 3 2 3 4 4 5 5 6 7 6 4 7 7 2 1 4 4 4 6 6 4 4 6 6 6 8 7 5 5 4 6 9 11 10 10 12 15 17 18 19 20 21 21 22 23 24 25 26 26 28 30 30 31 32 32 33 33 33 33 34 34 35 37 37 36 35 34 33 33 33 33 34 36 36 37 38 40 40 37 32 28 27 30 32 33
2 2 3 3 3 6 7 5 3 4 6 7 8 5 0 1 5 5 5 6 5 4 6 7 6 7 8 7 7 7 7 8 11 12 11 12 15 16 17 19 20 20 21 21 22 23 24 26 26 27 29 30 31 31 31 32 33 33 33 33 33 34 35 36 34 33 33 34 33 32 32 32 34 35 36 36 36 36 39 42 42 38 32 31 32 34
Wind_Direction
93 48 275 231 237 247 237 213 209 205 156 127 185 195 249 257 275 271 278 293 173 148 258 235 246 271 270 276 295 308 250 186 156 121 112 109 106 110 110 99 93 91 67 79 102 116 120 120 119 116 113 107 97 87 79 72 64 51 36 27 24 20 15 11 4 355 349 346 343 339 336 334 333 331 327 324 323 321 319 319 319 317 314 311 309 308
55 236 251 230 232 239 229 197 169 164 113 61 199 244 287 246 260 272 270 309 345 114 269 290 344 275 276 291 310 315 280 183 152 137 121 112 110 108 101 93 86 75 57 76 87 100 115 123 124 117 110 103 92 83 75 66 54 36 27 24 20 15 11 9 3 354 346 340 336 330 327 327 325 324 322 319 320 319 316 316 317 318 317 313 311 309
7 256 258 242 218 180 87 97 99 93 94 64 148 244 296 261 278 298 313 321 351 132 270 337 346 286 293 312 333 342 332 149 126 123 121 117 110 101 97 94 87 77 65 68 67 78 97 109 115 110 101 92 83 76 66 50 36 27 24 22 17 12 8 4 359 351 342 335 330 323 318 316 314 316 316 313 313 314 312 311 309 308 311 312 310 308
303 259 266 247 169 116 35 35 66 49 34 144 218 248 274 279 313 289 306 317 298 226 260 311 311 295 317 336 5 11 34 74 80 89 92 98 101 100 101 95 88 85 78 66 58 66 73 80 95 99 92 81 73 62 47 35 29 26 24 21 16 11 6 360 353 346 338 329 323 317 311 308 304 306 310 309 309 311 310 310 307 304 303 304 305 304
243 253 280 62 74 103 253 331 51 58 322 291 220 217 249 269 241 233 279 313 312 308 306 348 330 322 346 3 20 19 50 71 78 85 77 71 84 89 85 76 75 82 80 72 59 50 62 74 86 88 81 70 60 47 37 33 29 26 24 20 15 10 2 355 349 343 336 327 320 313 307 304 300 300 303 303 306 311 310 309 309 306 301 298 298 299
261 280 342 59 50 75 141 285 255 177 283 311 243 218 220 219 227 261 318 340 358 338 326 29 16 305 332 24 25 20 58 64 67 83 80 73 76 76 75 68 65 70 69 73 66 52 67 80 81 78 71 62 52 41 35 32 29 26 24 19 13 7 1 354 350 347 342 335 327 317 307 303 300 297 298 299 302 304 305 306 306 306 303 297 294 294
278 332 34 114 116 68 75 287 248 167 124 309 255 195 174 165 231 310 350 7 1 274 285 64 110 253 319 17 360 23 75 70 63 75 76 75 74 71 74 70 63 63 59 64 56 52 70 81 78 72 64 53 44 36 33 31 28 26 21 16 11 6 1 355 352 350 348 344 338 330 318 308 301 296 297 301 302 300 300 300 300 301 301 297 293 291
240 356 34 81 89 68 67 286 243 146 118 258 233 144 147 225 290 273 99 120 228 263 315 25 137 204 305 337 324 43 82 69 64 72 69 74 76 73 71 65 64 62 57 60 51 55 75 81 74 67 56 47 40 34 32 30 25 21 16 11 8 4 359 354 350 346 345 343 341 338 330 320 310 304 304 306 305 302 298 295 294 296 296 295 293 289
234 301 305 104 77 45 227 233 204 143 146 252 211 159 201 260 236 164 139 188 259 18 325 298 136 148 269 297 330 35 86 81 79 82 79 80 77 73 70 59 57 54 51 58 58 66 77 76 67 59 51 44 39 35 32 28 22 16 12 8 4 1 356 351 347 343 341 341 339 338 334 328 321 316 315 313 309 305 300 295 292 292 292 294 293 289
290 246 220 141 126 244 233 233 196 161 210 250 166 155 19 44 90 112 125 139 48 41 268 256 162 136 270 311 340 8 86 110 118 92 84 87 79 72 67 58 51 47 47 57 66 73 73 66 59 51 44 39 34 33 30 25 20 14 9 5 0 358 353 348 345 343 341 341 339 337 334 328 324 321 320 317 313 309 304 296 292 290 291 295 294 290
314 298 179 110 179 213 199 225 200 176 223 86 86 37 13 34 47 53 77 92 60 306 250 247 203 140 254 311 312 294 140 147 140 105 86 75 67 62 58 53 46 45 50 56 61 61 55 53 50 42 36 30 28 31 29 22 16 10 5 0 356 353 350 347 345 343 341 340 338 335 332 328 325 323 322 320 317 314 309 301 295 293 295 297 296 292
347 19 279 303 266 163 109 282 261 342 350 80 72 33 8 348 16 29 357 46 86 256 262 250 202 131 126 279 326 332 31 122 124 120 115 91 69 58 52 46 41 48 56 57 54 45 42 44 42 35 26 21 25 30 25 16 11 6 1 357 352 349 348 346 344 343 340 338 336 335 334 332 330 328 325 322 319 318 315 310 305 302 302 302 299 296
343 322 284 313 311 124 91 329 321 357 30 68 60 51 32 340 359 4 311 325 194 246 263 213 163 88 157 232 19 26 35 80 113 126 123 103 81 64 49 43 41 49 54 44 40 33 28 31 33 26 15 15 26 26 18 11 7 1 357 354 350 347 347 346 344 342 338 337 338 339 338 335 331 328 325 323 321 320 319 316 312 310 309 307 304 300
332 305 317 344 321 83 116 126 309 328 34 40 237 113 95 29 7 303 276 282 276 261 260 280 51 80 163 248 68 72 74 98 105 105 104 96 87 73 55 49 39 39 42 26 20 19 16 24 27 17 13 21 25 19 12 7 2 358 354 351 349 347 346 345 343 341 340 341 341 339 335 333 332 330 330 328 326 325 324 321 318 315 313 311 308 305
352 305 288 199 250 43 124 189 189 183 204 244 190 131 141 159 166 254 237 226 267 279 289 303 1 153 166 134 102 111 95 78 81 78 80 81 82 74 56 47 36 22 8 358 2 5 15 24 19 13 21 28 21 13 9 4 359 356 353 351 350 347 345 345 345 344 343 341 338 336 336 338 339 336 334 331 329 328 326 323 321 319 317 315 312 310
156 263 259 253 151 114 179 224 143 96 339 262 138 95 179 184 157 219 207 193 215 319 315 298 55 32 135 122 78 75 61 53 61 64 64 59 51 56 46 31 22 349 313 323 355 4 18 19 11 16 30 27 14 9 6 2 358 355 353 352 349 347 346 346 344 343 340 337 336 338 341 341 337 333 331 328 326 325 323 321 319 318 317 317 317 317
5 276 275 325 358 132 174 227 51 26 313 3 75 211 232 180 127 134 274 322 68 63 281 166 119 90 115 129 353 42 63 49 43 48 50 47 44 45 36 14 352 313 302 345 12 15 19 8 5 27 33 19 11 8 4 1 357 355 353 350 347 346 345 344 342 340 338 337 339 342 340 336 333 331 329 327 326 325 323 320 318 317 317 319 323 325
230 277 291 352 319 281 184 152 0 338 158 137 212 238 245 108 95 98 295 341 23 208 261 175 147 168 152 153 56 46 60 41 31 43 42 42 48 41 21 359 332 322 346 17 21 22 12 0 14 36 26 13 10 7 1 358 355 353 351 349 348 346 342 341 340 339 340 342 343 340 336 333 332 332 329 327 325 324 323 323 323 324 325 326 328 328
132 280 301 333 244 295 345 70 343 325 199 161 221 235 129 120 261 18 121 257 326 240 278 318 156 170 181 171 125 70 71 53 36 45 44 29 29 29 8 348 336 346 16 21 12 6 359 7 29 30 15 9 7 2 358 355 353 352 351 350 347 342 339 340 340 341 344 344 339 335 333 334 334 333 331 329 328 326 326 330 333 332 330 330 329 328
37 257 288 292 244 303 355 49 287 303 319 6 326 311 34 164 193 202 168 181 194 219 250 315 338 179 221 186 134 122 100 68 41 32 30 4 358 10 353 340 341 351 9 19 2 351 5 22 27 18 9 6 2 358 356 354 352 351 350 348 344 341 341 342 344 346 344 339 336 335 336 337 335 334 335 335 336 335 334 335 335 333 330 328 326 324
1 201 260 293 315 323 325 225 199 211 243 59 22 292 290 275 235 295 250 147 140 191 196 240 283 253 242 124 127 125 92 68 52 25 2 344 356 358 342 340 343 334 343 11 7 6 17 24 18 9 6 3 358 355 355 352 349 350 350 347 345 344 343 345 348 345 340 337 337 337 338 339 339 340 339 337 337 338 336 335 334 331 328 324 321 319
333 200 244 294 320 294 264 246 192 178 177 155 172 211 187 171 21 309 289 300 86 181 180 170 254 261 238 101 118 112 91 74 51 22 355 351 357 344 334 334 328 322 341 8 12 16 20 18 11 5 2 358 354 353 352 350 350 351 350 347 345 343 344 347 345 340 337 337 337 337 339 341 340 338 333 331 332 334 333 331 330 327 324 321 318 316
173 117 267 279 271 263 276 283 146 163 163 145 172 208 141 138 131 175 245 274 321 271 176 140 240 265 189 98 92 94 99 89 47 20 4 359 348 329 324 325 322 331 352 10 20 21 19 14 7 2 357 353 352 352 351 350 352 352 348 346 345 343 344 343 339 337 337 337 337 340 342 339 335 332 331 330 330 331 331 329 328 326 323 320 318 317
11 82 319 285 284 296 306 339 56 61 102 111 308 6 122 248 130 160 196 188 212 268 258 140 259 234 154 96 84 96 115 85 40 14 0 348 333 321 343 348 351 359 357 5 20 21 17 10 3 358 353 351 352 353 351 351 351 349 346 346 345 344 342 339 337 337 337 336 338 341 338 335 332 330 331 331 329 329 329 328 327 325 322 320 319 318
305 271 11 324 326 336 341 357 357 345 25 34 293 7 72 49 90 120 147 81 178 251 163 171 261 212 140 120 95 74 7 92 53 358 340 345 346 0 16 1 357 360 353 357 15 18 13 5 358 355 353 353 354 352 350 349 348 346 345 345 344 341 337 337 337 336 334 335 339 338 336 335 333 330 330 330 329 327 327 325 325 323 321 320 320 318
263 238 115 357 303 302 306 305 300 305 320 295 285 335 328 242 148 167 168 74 185 258 131 157 244 144 129 112 75 299 265 200 354 356 357 356 355 7 11 357 348 352 351 0 15 14 5 358 354 355 355 355 353 349 347 346 345 344 344 343 342 338 335 334 334 332 332 337 339 337 336 335 333 332 330 329 327 326 325 325 323 321 320 319 318 317
79 276 218 190 220 245 257 262 269 314 303 289 294 306 308 294 150 124 107 154 180 215 298 182 130 135 153 357 338 339 8 6 357 358 354 349 352 2 356 349 348 351 355 9 16 6 356 355 354 355 355 353 350 348 346 344 343 344 343 341 340 338 336 334 332 330 334 339 338 337 335 333 331 330 328 326 325 324 324 323 321 319 318 316 315 314
69 307 264 213 235 251 254 267 291 318 280 276 293 293 289 327 47 102 137 232 154 110 270 244 56 41 227 348 352 357 14 6 351 349 343 340 341 337 341 343 345 353 8 19 10 358 354 355 353 354 353 350 348 347 345 343 342 343 341 339 339 338 336 333 330 330 336 338 337 335 333 331 329 327 325 324 324 323 323 322 320 319 316 315 313 311
115 262 258 219 270 276 271 271 285 289 267 313 344 312 294 17 36 75 129 205 112 154 249 285 15 355 324 2 350 357 12 352 340 340 335 330 324 322 342 344 346 2 19 14 360 356 357 355 353 353 350 347 346 345 344 342 341 341 340 339 339 337 335 334 331 331 336 337 336 334 331 329 328 326 325 324 323 322 322 321 319 318 316 314 312 310
130 258 259 179 295 294 294 295 295 295 352 36 21 10 34 49 49 64 64 38 47 264 250 10 5 313 168 32 339 13 9 340 332 331 330 332 338 348 347 344 355 18 20 1 355 359 360 356 353 350 346 344 344 343 342 341 340 340 339 339 339 336 335 334 332 331 334 335 333 331 330 328 327 326 325 324 323 322 321 320 319 318 316 314 313 311
89 281 297 70 339 299 305 335 354 24 94 81 33 18 27 34 34 35 18 11 13 320 316 9 349 281 168 75 18 0 345 334 336 333 333 344 358 351 348 353 11 22 5 352 358 1 358 355 351 347 344 342 342 342 341 339 337 338 338 339 338 335 334 334 331 331 332 332 331 330 330 329 328 326 325 324 323 322 322 321 320 319 317 316 316 314
29 293 349 45 5 289 303 345 353 41 98 80 26 10 13 25 21 346 332 5 15 288 321 344 330 286 311 24 355 336 340 345 341 331 332 354 1 349 356 15 23 11 352 350 3 4 356 354 349 344 342 340 340 341 340 337 336 337 338 338 336 334 333 333 331 330 330 331 331 331 330 330 329 327 326 326 325 323 323 322 321 320 318 317 317 316
84 30 344 30 327 275 297 327 339 54 74 358 343 342 340 32 23 333 322 8 18 202 333 315 278 278 315 341 343 343 349 349 335 325 333 356 355 354 14 28 19 0 351 353 2 1 354 351 346 342 339 338 339 341 339 337 336 336 336 336 335 334 334 333 332 331 330 331 332 331 331 331 329 328 327 327 326 324 324 323 321 320 319 318 318 317
63 76 262 246 259 275 296 323 354 51 348 268 281 335 298 127 45 354 319 311 18 68 141 252 273 310 343 358 357 349 346 337 319 314 339 5 3 11 22 23 9 356 351 354 359 356 351 346 342 338 336 336 337 339 339 338 336 335 335 335 335 335 334 333 332 331 331 331 332 332 331 330 329 327 326 326 326 325 324 323 321 321 321 320 318 317
30 49 261 229 179 263 306 3 24 339 249 213 193 356 343 147 33 345 303 177 35 357 354 332 330 347 3 5 358 346 334 319 306 311 20 37 32 28 16 6 4 356 348 352 355 351 347 343 339 337 336 336 337 338 340 339 337 335 334 335 335 334 334 332 330 330 330 330 330 331 330 330 328 327 325 325 326 325 323 323 322 322 322 320 318 316
136 157 267 220 187 302 358 21 351 255 254 202 311 349 11 31 359 351 343 165 344 342 6 359 342 351 357 342 340 340 322 309 301 333 57 49 45 43 20 3 3 353 343 348 352 347 344 342 339 336 335 335 337 338 340 340 338 335 334 335 336 334 333 331 329 329 330 329 329 330 329 329 327 325 325 325 324 324 323 323 322 322 322 320 318 317
141 133 19 352 246 86 12 293 282 292 334 6 348 342 357 354 341 344 321 263 36 28 24 360 340 343 339 325 332 333 319 313 313 0 59 53 45 43 25 6 360 349 342 345 348 345 343 341 338 336 335 335 336 338 339 339 337 336 334 335 336 334 333 331 329 330 330 329 329 328 328 328 326 324 324 324 323 323 322 322 321 322 322 320 318 317
120 160 110 103 323 72 67 320 342 350 311 273 312 322 320 296 298 311 277 239 60 43 22 356 342 337 331 331 338 334 330 337 331 335 31 43 39 39 20 4 1 352 344 343 344 344 343 341 338 335 334 335 335 336 338 338 337 336 334 334 335 334 332 331 330 331 330 329 328 328 328 328 326 325 324 324 323 322 321 321 321 320 321 320 317 316
39 15 103 95 1 43 69 355 291 246 238 231 300 313 310 296 302 333 285 253 45 34 6 352 344 338 339 342 344 344 344 342 325 328 17 20 18 34 20 2 358 352 345 343 343 343 342 339 335 333 334 336 335 336 338 338 337 336 334 334 334 333 332 332 331 331 330 328 328 328 328 328 327 326 324 323 323 323 321 321 320 320 321 320 317 316
22 9 49 50 345 343 89 271 255 228 219 305 320 313 303 295 340 30 327 294 3 25 357 350 340 336 347 347 343 349 349 326 310 325 11 10 11 33 22 3 356 350 345 342 340 340 341 338 335 334 335 337 336 337 338 338 337 336 334 334 334 333 333 332 330 330 329 328 328 328 328 329 328 326 325 324 323 323 322 321 321 321 321 320 319 318
4 356 35 63 3 346 75 261 290 279 228 321 319 311 304 311 39 26 294 291 346 353 356 354 334 325 345 344 331 327 320 306 303 318 3 10 6 14 9 358 352 347 343 339 337 339 341 338 336 335 335 336 337 337 339 339 337 336 335 334 333 333 332 331 330 331 330 329 329 329 329 329 328 327 326 325 324 323 322 323 322 322 321 320 320 319
1 339 355 52 11 346 68 257 303 290 212 315 317 312 321 352 357 300 294 325 343 340 346 336 316 309 336 334 320 305 306 307 309 332 6 4 358 0 357 352 349 344 341 338 337 341 341 338 337 335 334 336 338 338 339 340 337 335 335 334 333 333 333 332 332 332 330 329 329 329 330 330 330 329 328 327 326 324 323 324 325 323 322 321 320 319
130 325 317 316 320 354 14 0 325 285 281 333 335 334 9 31 332 310 322 332 330 327 322 311 306 322 333 324 315 309 310 315 334 358 357 351 354 357 351 348 345 341 340 340 339 341 341 338 335 334 333 336 338 339 340 339 336 334 334 333 333 334 333 333 333 332 331 330 330 330 331 331 331 331 330 329 329 327 324 325 326 326 325 323 321 320
87 102 291 283 210 93 17 328 265 246 299 336 359 359 353 333 318 321 314 310 316 321 310 308 319 337 336 327 320 315 315 331 357 353 344 344 350 350 345 345 344 341 340 339 338 339 340 337 334 333 333 336 338 339 340 339 336 334 334 333 334 335 334 333 333 332 332 332 331 331 332 332 332 332 332 331 331 329 327 327 328 327 326 325 322 319
290 208 184 217 259 177 217 252 224 227 322 349 46 58 314 279 277 280 278 288 319 333 320 323 334 342 346 336 321 317 326 354 353 340 337 342 345 345 343 343 342 341 338 337 336 338 338 336 333 332 333 336 339 340 340 341 339 334 333 334 336 336 335 334 334 333 332 332 332 332 332 332 333 333 333 333 333 331 329 329 329 327 326 325 323 319
280 304 154 144 317 296 244 249 313 334 339 9 76 137 250 253 256 265 281 312 343 340 334 342 348 349 347 337 326 328 341 351 345 336 338 342 342 341 342 340 340 340 337 336 336 336 336 334 333 332 333 334 338 339 339 340 339 335 333 335 336 337 336 335 334 333 332 332 332 333 333 333 333 333 333 334 334 334 332 331 329 327 326 324 322 321
334 1 47 58 343 321 313 21 16 342 334 3 109 284 306 344 345 329 337 351 346 340 349 5 3 351 343 338 338 341 339 345 347 337 337 343 340 339 341 339 337 336 334 334 334 334 334 334 334 334 333 333 335 338 338 338 338 336 335 336 337 337 336 335 334 332 331 332 333 333 334 333 332 332 333 334 335 335 334 334 332 329 326 324 323 324
327 6 26 24 330 289 279 310 349 330 307 242 111 349 345 2 352 335 353 2 345 342 358 8 357 346 341 341 350 350 340 345 346 336 335 341 338 338 339 336 332 331 330 331 333 334 335 334 334 334 332 332 334 337 337 338 338 338 338 338 338 337 336 335 334 332 332 333 333 333 334 334 333 333 333 334 334 335 335 335 333 330 326 324 325 324
315 0 356 319 296 280 278 319 344 328 296 243 28 360 353 354 331 327 345 348 341 343 357 354 347 346 344 343 0 13 349 340 344 341 337 337 337 336 335 332 329 328 327 329 333 335 335 335 334 333 331 331 334 336 337 337 338 339 339 338 338 338 337 336 335 334 333 334 334 334 335 335 334 334 334 333 333 334 334 334 332 328 326 328 332 329
358 14 343 325 325 318 315 331 341 324 295 305 342 347 354 357 336 333 338 340 343 358 359 340 334 343 347 352 23 36 2 340 344 344 338 335 334 332 330 329 328 326 327 330 333 335 335 335 334 332 331 332 335 336 336 336 337 338 338 338 338 339 338 337 335 334 334 335 335 334 335 335 334 335 335 335 334 334 334 335 335 333 332 335 338 338
16 346 325 330 305 293 304 318 322 298 289 305 324 328 299 12 351 343 338 342 352 8 360 342 335 345 349 355 20 27 8 346 344 342 336 330 330 329 330 330 329 327 328 331 333 334 334 335 334 333 332 333 334 335 334 334 336 338 338 339 340 340 339 338 337 334 333 334 333 333 334 334 334 335 336 336 336 336 335 335 337 339 342 345 346 346